Orbital Elements
Epoch 2017 Sept. 4.0 TT = JDT 2458000.5
T 2017 Aug. 20.49332 TT MPCW
q 3.1396835 (2000.0) P Q
n 0.09869501 Peri. 200.11539 +0.98177911 +0.16756819
a 4.6373790 Node 149.79874 -0.14066480 +0.95793325
e 0.3229616 Incl. 10.26176 -0.12776227 +0.23299097
P 9.99
From 128 observations 2007 Aug. 21-2018 Feb. 10, mean residual 0".5.
|